Regional Weather Roundup
Issued by NWS Charleston, WV

Home | Current Version | Previous Version | Graphics & Text | Print | Product List | Glossary On
Versions: 1 2 3 4 5 6 7 8 9 10 11 12 13 14 15 16 17 18 19 20 21 22 23 24 25 26 27
000
ASUS41 KRLX 191710
RWRRLX
West Virginia Regional Weather Roundup
National Weather Service Charleston WV
1200 PM EST FRI JAN 19 2018

Note: "fair" indicates few or no clouds below 12,000 feet with no
significant weather and/or obstructions to visibility.

WVZ003-191800-
Northern Panhandle of West Virginia

CITY           SKY/WX    TMP DP  RH WIND       PRES   REMARKS
WHEELING         N/A     31  13  47 SW13G20   30.10F
$$

WVZ009-191800-
Northwest West Virginia

CITY           SKY/WX    TMP DP  RH WIND       PRES   REMARKS
PARKERSBURG      N/A     34  13  41 S10G20    30.20F
$$

WVZ006-191800-
Western West Virginia

CITY           SKY/WX    TMP DP  RH WIND       PRES   REMARKS
HUNTINGTON       N/A     34  13  41 S6        30.22F
$$

WVZ015-191800-
West Central West Virginia

CITY           SKY/WX    TMP DP  RH WIND       PRES   REMARKS
CHARLESTON       N/A     37  12  35 SW7       30.22F
$$

WVZ022-031-191800-
North Central West Virginia

CITY           SKY/WX    TMP DP  RH WIND       PRES   REMARKS
CLARKSBURG       N/A     34  13  41 SW15      30.17F
MORGANTOWN       N/A     33  12  41 SW10G20   30.14F
$$

WVZ025-035-042-045-191800-
Southern West Virginia

CITY           SKY/WX    TMP DP  RH WIND       PRES   REMARKS
BECKLEY          N/A     31   6  35 SW9       30.17F
LOGAN            N/A     36  14  41 CALM      30.21F
BLUEFIELD        N/A     36   1  22 W12       30.17F
LEWISBURG        N/A     34   6  31 SW8       30.17F
$$

WVZ047-191800-
Northern Mountains of West Virginia

CITY           SKY/WX    TMP DP  RH WIND       PRES   REMARKS
ELKINS           N/A     35  10  35 S8        30.14F
$$

WVZ052-191800-
Eastern Panhandle of West Virginia

CITY           SKY/WX    TMP DP  RH WIND       PRES   REMARKS
MARTINSBURG      N/A     46  13  26 W14       30.07F
PETERSBURG       N/A     47  13  25 W10       30.07F
$$




USA.gov is the U.S. government's official web portal to all federal, state and local government web resources and services.